ASA61 PACV-PANC

Flight info

Callsign ASA61
Flight time 0h 34m
Altitude 22000
Route EYAKS6 EYAKS JOH WITTI5
Aircraft B737/M-SDE2E3FGHIRWXY/LB1

Departure

Time 2026-04-14 21:11
Airport Merle K (Mudhole) Smith Airport (PACV)

Arrival

Time 2026-04-14 21:46
Airport Ted Stevens Anchorage International Airport (PANC)
Time Latitude Longitude Altitude Speed Heading
2026-04-14 20:46 60.49419 -145.47265 53 ft 0 kts 124°
2026-04-14 21:01 60.49420 -145.47269 47 ft 1 kts 124°
2026-04-14 21:01 60.49430 -145.47298 49 ft 3 kts 122°
2026-04-14 21:01 60.49439 -145.47333 50 ft 3 kts 103°
2026-04-14 21:01 60.49441 -145.47362 51 ft 2 kts 47°
2026-04-14 21:02 60.49433 -145.47376 45 ft 2 kts 35°
2026-04-14 21:02 60.49417 -145.47394 50 ft 3 kts
2026-04-14 21:02 60.49399 -145.47390 49 ft 3 kts 326°
2026-04-14 21:02 60.49385 -145.47363 52 ft 3 kts 304°
2026-04-14 21:03 60.49374 -145.47328 47 ft 3 kts 296°
2026-04-14 21:03 60.49366 -145.47291 53 ft 3 kts 293°
2026-04-14 21:03 60.49363 -145.47276 50 ft 0 kts 294°
2026-04-14 21:05 60.49363 -145.47277 51 ft 1 kts 294°
2026-04-14 21:05 60.49375 -145.47328 53 ft 7 kts 294°
2026-04-14 21:05 60.49377 -145.47339 53 ft 0 kts 294°
2026-04-14 21:06 60.49380 -145.47353 53 ft 3 kts 294°
2026-04-14 21:06 60.49384 -145.47405 53 ft 4 kts 259°
2026-04-14 21:06 60.49362 -145.47437 51 ft 4 kts 208°
2026-04-14 21:06 60.49343 -145.47456 51 ft 0 kts 205°
2026-04-14 21:07 60.49309 -145.47489 48 ft 17 kts 205°
2026-04-14 21:08 60.49207 -145.47535 48 ft 14 kts 144°
2026-04-14 21:08 60.49165 -145.47363 51 ft 13 kts 112°
2026-04-14 21:08 60.49130 -145.47193 51 ft 13 kts 112°
2026-04-14 21:08 60.49095 -145.47027 54 ft 13 kts 112°
2026-04-14 21:09 60.49061 -145.46869 53 ft 12 kts 115°
2026-04-14 21:09 60.49024 -145.46708 54 ft 13 kts 115°
2026-04-14 21:09 60.48981 -145.46517 53 ft 17 kts 115°
2026-04-14 21:09 60.48926 -145.46279 50 ft 20 kts 115°
2026-04-14 21:10 60.48892 -145.46022 53 ft 18 kts 68°
2026-04-14 21:10 60.48858 -145.45881 53 ft 12 kts 216°
2026-04-14 21:10 60.48867 -145.46035 48 ft 14 kts 293°
2026-04-14 21:10 60.48998 -145.46649 56 ft 84 kts 294°
2026-04-14 21:11 60.49326 -145.48162 55 ft 147 kts 288°
2026-04-14 21:11 60.49785 -145.50260 391 ft 166 kts 295°
2026-04-14 21:11 60.50191 -145.52468 1041 ft 180 kts 270°
2026-04-14 21:11 60.49679 -145.54861 1609 ft 197 kts 228°
2026-04-14 21:12 60.48572 -145.56668 2252 ft 215 kts 207°
2026-04-14 21:12 60.47082 -145.57269 3063 ft 223 kts 180°
2026-04-14 21:12 60.45524 -145.57185 3951 ft 227 kts 183°
2026-04-14 21:12 60.43953 -145.57893 4504 ft 246 kts 211°
2026-04-14 21:13 60.42647 -145.60342 4932 ft 265 kts 229°
2026-04-14 21:13 60.41334 -145.63026 5830 ft 269 kts 225°
2026-04-14 21:13 60.39955 -145.65596 6859 ft 271 kts 224°
2026-04-14 21:14 60.38260 -145.72198 8785 ft 273 kts 270°
2026-04-14 21:14 60.38476 -145.76005 9835 ft 274 kts 282°
2026-04-14 21:14 60.38907 -145.79813 10624 ft 286 kts 284°
2026-04-14 21:14 60.39409 -145.83921 10892 ft 315 kts 285°
2026-04-14 21:15 60.39959 -145.88388 11233 ft 338 kts 285°
2026-04-14 21:15 60.40527 -145.93077 12001 ft 346 kts 284°
2026-04-14 21:15 60.41089 -145.97833 12971 ft 350 kts 284°
2026-04-14 21:15 60.41650 -146.02652 13914 ft 354 kts 284°
2026-04-14 21:16 60.42215 -146.07544 14769 ft 359 kts 284°
2026-04-14 21:16 60.42781 -146.12489 15679 ft 363 kts 284°
2026-04-14 21:16 60.43351 -146.17490 16587 ft 367 kts 284°
2026-04-14 21:16 60.43926 -146.22552 17478 ft 371 kts 284°
2026-04-14 21:17 60.44511 -146.27691 18280 ft 377 kts 283°
2026-04-14 21:17 60.45100 -146.32907 18995 ft 383 kts 283°
2026-04-14 21:17 60.45690 -146.38186 19802 ft 385 kts 283°
2026-04-14 21:17 60.46273 -146.43425 20611 ft 388 kts 282°
2026-04-14 21:18 60.46870 -146.48773 21401 ft 390 kts 282°
2026-04-14 21:18 60.47468 -146.54162 22158 ft 394 kts 282°
2026-04-14 21:18 60.48070 -146.59602 22902 ft 397 kts 283°
2026-04-14 21:18 60.48803 -146.65035 23579 ft 401 kts 287°
2026-04-14 21:19 60.49679 -146.70415 24018 ft 403 kts 289°
2026-04-14 21:19 60.50599 -146.75754 24038 ft 400 kts 289°
2026-04-14 21:19 60.51523 -146.81085 24050 ft 402 kts 289°
2026-04-14 21:19 60.52442 -146.86447 24054 ft 402 kts 289°
2026-04-14 21:20 60.53054 -146.90072 24045 ft 400 kts 289°
2026-04-14 21:20 60.54222 -146.97095 24048 ft 395 kts 289°
2026-04-14 21:20 60.54812 -147.00687 24057 ft 396 kts 289°
2026-04-14 21:20 60.55680 -147.06010 24059 ft 397 kts 289°
2026-04-14 21:21 60.56543 -147.11333 24060 ft 394 kts 289°
2026-04-14 21:21 60.57392 -147.16594 24048 ft 390 kts 289°
2026-04-14 21:21 60.58236 -147.21839 24055 ft 391 kts 289°
2026-04-14 21:21 60.59071 -147.27040 24058 ft 392 kts 289°
2026-04-14 21:22 60.59915 -147.32310 24048 ft 392 kts 289°
2026-04-14 21:22 60.60756 -147.37581 23926 ft 392 kts 289°
2026-04-14 21:22 60.61597 -147.42866 23884 ft 393 kts 289°
2026-04-14 21:22 60.62438 -147.48163 23876 ft 393 kts 289°
2026-04-14 21:23 60.63275 -147.53452 23876 ft 392 kts 289°
2026-04-14 21:23 60.64108 -147.58738 23870 ft 392 kts 289°
2026-04-14 21:23 60.64941 -147.64030 23868 ft 392 kts 289°
2026-04-14 21:23 60.65771 -147.69331 23869 ft 392 kts 289°
2026-04-14 21:24 60.66599 -147.74628 23866 ft 391 kts 289°
2026-04-14 21:24 60.67415 -147.79868 23873 ft 386 kts 289°
2026-04-14 21:24 60.68225 -147.85086 23863 ft 386 kts 289°
2026-04-14 21:24 60.69037 -147.90320 23875 ft 387 kts 289°
2026-04-14 21:25 60.69848 -147.95570 23876 ft 388 kts 289°
2026-04-14 21:25 60.70658 -148.00831 23866 ft 388 kts 289°
2026-04-14 21:25 60.71464 -148.06083 23863 ft 388 kts 289°
2026-04-14 21:25 60.72268 -148.11335 23866 ft 387 kts 289°
2026-04-14 21:26 60.73071 -148.16596 23886 ft 387 kts 289°
2026-04-14 21:26 60.73869 -148.21844 23875 ft 388 kts 289°
2026-04-14 21:26 60.74665 -148.27100 23868 ft 387 kts 289°
2026-04-14 21:26 60.75454 -148.32365 23874 ft 386 kts 289°
2026-04-14 21:27 60.76237 -148.37616 23875 ft 386 kts 289°
2026-04-14 21:27 60.77004 -148.42777 23880 ft 381 kts 290°
2026-04-14 21:27 60.77772 -148.47935 23894 ft 379 kts 290°
2026-04-14 21:27 60.78530 -148.53067 23850 ft 372 kts 289°
2026-04-14 21:28 60.79267 -148.58109 23359 ft 367 kts 289°
2026-04-14 21:28 60.80002 -148.63087 22728 ft 363 kts 289°
2026-04-14 21:28 60.80722 -148.67993 22094 ft 356 kts 289°
2026-04-14 21:28 60.81427 -148.72811 21476 ft 350 kts 288°
2026-04-14 21:29 60.82123 -148.77580 20836 ft 348 kts 288°
2026-04-14 21:29 60.82810 -148.82320 20196 ft 346 kts 287°
2026-04-14 21:29 60.83497 -148.87048 19555 ft 345 kts 287°
2026-04-14 21:29 60.84179 -148.91756 18936 ft 344 kts 286°
2026-04-14 21:30 60.84858 -148.96458 18350 ft 343 kts 286°
2026-04-14 21:30 60.85531 -149.01143 17683 ft 343 kts 286°
2026-04-14 21:30 60.86201 -149.05817 17011 ft 341 kts 286°
2026-04-14 21:30 60.86869 -149.10472 16387 ft 338 kts 286°
2026-04-14 21:31 60.87524 -149.15071 15799 ft 335 kts 286°
2026-04-14 21:31 60.88174 -149.19640 15209 ft 332 kts 286°
2026-04-14 21:31 60.88887 -149.24111 14755 ft 327 kts 292°
2026-04-14 21:31 60.89817 -149.28373 14394 ft 329 kts 295°
2026-04-14 21:32 60.90833 -149.32652 14017 ft 335 kts 296°
2026-04-14 21:32 60.91865 -149.36977 13607 ft 338 kts 296°
2026-04-14 21:32 60.92889 -149.41328 13172 ft 338 kts 295°
2026-04-14 21:32 60.93895 -149.45674 12788 ft 336 kts 295°
2026-04-14 21:33 60.94888 -149.50019 12383 ft 335 kts 295°
2026-04-14 21:33 60.95868 -149.54338 11993 ft 332 kts 295°
2026-04-14 21:33 60.96839 -149.58632 11611 ft 329 kts 295°
2026-04-14 21:33 60.97796 -149.62877 11241 ft 324 kts 295°
2026-04-14 21:34 60.98726 -149.67012 10874 ft 314 kts 294°
2026-04-14 21:34 60.99629 -149.71039 10521 ft 305 kts 295°
2026-04-14 21:34 61.00668 -149.74763 10162 ft 298 kts 310°
2026-04-14 21:34 61.02124 -149.77668 9945 ft 280 kts 317°
2026-04-14 21:35 61.03513 -149.80243 9658 ft 265 kts 317°
2026-04-14 21:35 61.04859 -149.82766 9292 ft 257 kts 317°
2026-04-14 21:35 61.06169 -149.85255 8937 ft 255 kts 317°
2026-04-14 21:35 61.07454 -149.87717 8629 ft 255 kts 317°
2026-04-14 21:36 61.08753 -149.90212 8329 ft 256 kts 317°
2026-04-14 21:36 61.09981 -149.92946 8002 ft 258 kts 300°
2026-04-14 21:36 61.10513 -149.96399 7751 ft 257 kts 277°
2026-04-14 21:36 61.10567 -150.00088 7451 ft 257 kts 270°
2026-04-14 21:37 61.10505 -150.03777 7144 ft 257 kts 269°
2026-04-14 21:37 61.10431 -150.07468 6841 ft 257 kts 269°
2026-04-14 21:37 61.10364 -150.11151 6542 ft 255 kts 270°
2026-04-14 21:37 61.10306 -150.14809 6238 ft 254 kts 270°
2026-04-14 21:38 61.10256 -150.18367 5921 ft 243 kts 270°
2026-04-14 21:38 61.10210 -150.21785 5646 ft 232 kts 271°
2026-04-14 21:38 61.10166 -150.25052 5391 ft 223 kts 271°
2026-04-14 21:38 61.10124 -150.28182 5163 ft 214 kts 271°
2026-04-14 21:39 61.10088 -150.31233 4888 ft 213 kts 272°
2026-04-14 21:39 61.10077 -150.34295 4594 ft 211 kts 273°
2026-04-14 21:39 61.10081 -150.37297 4360 ft 206 kts 273°
2026-04-14 21:39 61.10091 -150.40261 4163 ft 207 kts 274°
2026-04-14 21:40 61.10086 -150.43259 3994 ft 209 kts 272°
2026-04-14 21:40 61.10106 -150.46261 3808 ft 210 kts 283°
2026-04-14 21:40 61.10833 -150.48756 3521 ft 204 kts 328°
2026-04-14 21:40 61.12155 -150.49577 3283 ft 199 kts
2026-04-14 21:41 61.13483 -150.48896 3004 ft 199 kts 28°
2026-04-14 21:41 61.14481 -150.46906 2745 ft 204 kts 54°
2026-04-14 21:41 61.15213 -150.44394 2575 ft 203 kts 56°
2026-04-14 21:41 61.15933 -150.41881 2448 ft 203 kts 57°
2026-04-14 21:42 61.16591 -150.39277 2285 ft 207 kts 72°
2026-04-14 21:42 61.16738 -150.36307 2170 ft 206 kts 85°
2026-04-14 21:42 61.16783 -150.33415 1999 ft 195 kts 87°
2026-04-14 21:42 61.16793 -150.30692 1903 ft 186 kts 88°
2026-04-14 21:43 61.16791 -150.28057 1841 ft 181 kts 89°
2026-04-14 21:43 61.16788 -150.25452 1791 ft 181 kts 89°
2026-04-14 21:43 61.16785 -150.22811 1674 ft 184 kts 89°
2026-04-14 21:43 61.16783 -150.20187 1612 ft 179 kts 88°
2026-04-14 21:44 61.16780 -150.17737 1471 ft 163 kts 88°
2026-04-14 21:44 61.16780 -150.15463 1267 ft 156 kts 89°
2026-04-14 21:44 61.16779 -150.13266 1044 ft 148 kts 88°
2026-04-14 21:44 61.16779 -150.11260 857 ft 133 kts 89°
2026-04-14 21:45 61.16779 -150.09390 663 ft 130 kts 90°
2026-04-14 21:45 61.16780 -150.07491 479 ft 133 kts 90°
2026-04-14 21:45 61.16780 -150.05577 306 ft 132 kts 89°
2026-04-14 21:45 61.16781 -150.03675 144 ft 129 kts 89°
2026-04-14 21:46 61.16783 -150.02097 137 ft 88 kts 90°
2026-04-14 21:46 61.16784 -150.01144 134 ft 48 kts 90°
2026-04-14 21:46 61.16785 -150.00479 131 ft 44 kts 90°
2026-04-14 21:46 61.16796 -149.99879 126 ft 34 kts 81°
2026-04-14 21:47 61.16858 -149.99513 123 ft 23 kts 59°
2026-04-14 21:47 61.16957 -149.99330 122 ft 18 kts 31°
2026-04-14 21:47 61.17055 -149.99192 119 ft 15 kts 36°
2026-04-14 21:47 61.17132 -149.99059 115 ft 14 kts 43°
2026-04-14 21:48 61.17192 -149.98907 117 ft 13 kts 52°
2026-04-14 21:48 61.17259 -149.98778 111 ft 13 kts 31°
2026-04-14 21:48 61.17335 -149.98682 109 ft 12 kts 32°
2026-04-14 21:48 61.17403 -149.98597 107 ft 10 kts 20°
2026-04-14 21:49 61.17459 -149.98549 107 ft 6 kts 63°
2026-04-14 21:49 61.17465 -149.98469 109 ft 5 kts 82°
2026-04-14 21:49 61.17469 -149.98422 108 ft 3 kts 82°
2026-04-14 21:49 61.17469 -149.98420 109 ft 0 kts 82°